Regional Weather Roundup
Issued by NWS Newport/Morehead, NC

Current Version | Previous Version | Graphics & Text | Print | Product List | Glossary Off
Versions: 1 2 3 4 5 6 7 8 9 10 11 12 13 14 15 16 17 18 19 20 21 22 23 24 25 26 27 28 29 30 31 32 33 34 35 36 37 38 39 40 41 42 43 44 45 46 47 48 49 50

171
ASUS42 KMHX 260613
RWRMHX
WEATHER ROUNDUP FOR EASTERN NORTH CAROLINA
NATIONAL WEATHER SERVICE NEWPORT/MOREHEAD CITY NC
200 AM EDT TUE JUL 26 2016

NOTE: "FAIR" INDICATES FEW OR NO CLOUDS BELOW 12,000 FEET
WITH NO SIGNIFICANT WEATHER AND/OR OBSTRUCTIONS TO VISIBILITY

NCZ015>017-031-032-045>047-102-103-260700-
NORTH COAST

CITY           SKY/WX    TMP DP  RH WIND       PRES   REMARKS
EDENTON        PTCLDY    83  73  71 SW14      29.99F
ELIZABETH CITY PTCLDY    80  74  81 SW12      29.98S
KITTY HAWK     MOCLDY    82  75  80 SW12G18   29.97F
MANTEO           N/A     81  78  90 W14G21    29.99S

$$

NCZ045>047-081-094-103-104-260700-
CENTRAL COAST

CITY           SKY/WX    TMP DP  RH WIND       PRES   REMARKS
FRISCO         PTCLDY    81  75  82 SW13      30.01F

$$

NCZ095-097-098-100-101-260700-
SOUTHERN COAST

CITY           SKY/WX    TMP DP  RH WIND       PRES   REMARKS
BEAUFORT       PTCLDY    83  75  77 SW15G22   30.02F
CEDAR ISLAND   NOT AVBL
JACKSONVILLE   CLEAR     78  73  84 SW6       30.02F
PINEY ISLAND   NOT AVBL
WILMINGTON     CLEAR     79  73  82 SW7       30.04F


$$

NCZ011>013-027>030-043-044-078>080-089-090>093-098-260700-
COASTAL PLAIN

CITY           SKY/WX    TMP DP  RH WIND       PRES   REMARKS
AHOSKIE        PTCLDY    78  74  86 S5        29.97F
CLINTON        PTCLDY    78  75  89 SW3       30.03F
ELIZABETHTOWN  PTCLDY    78  74  85 S6        30.03F
GOLDSBORO      CLEAR     79  77  93 SW7       30.00S
GREENVILLE     MOCLDY    81  73  78 SW8       30.02S
HAVELOCK       CLOUDY    80  74  81 SW12      30.03F
KENANSVILLE    NOT AVBL
KINSTON        CLOUDY    79  73  82 SW9G17    30.02S
NEW BERN       CLOUDY    78  74  87 SW9       30.03F
RICHLANDS      PTCLDY    77  74  90 S12       30.03F
ROCKY MOUNT    CLEAR     79  73  82 S9        30.00S
WASHINGTON     NOT AVBL
WHITEVILLE     NOT AVBL

$$

AMZ130-135-150-152-154-156-158-170-250-252-270-ANZ085-086-088-633-658-670-260700-
MARINE OBSERVATIONS

STATION/POSITION TIME  TEMP    WIND        PRES    WAVE   SWELL
                       AIR SEA DIR/SP/G            HT/PER HT/PER
                 (UTC) (F)     (DEG/KT/KT) (MB)    (FT/S) (FT/S)
CHESAPEAKE LIGHT NOT AVBL
64 E VA BEACH    0550   82 80  230/ 19/ 25 1013.7    4/ 6   2/ 8
DUCK             0500   83 63  230/ 17/ 22 1014.7
2 E DUCK         0511      67                N/A     2/ 9
OREGON INLET     0500   83 85  210/ 19/ 22 1015.6
13E OREGON INLT  0600      81                N/A     4/ 4   2/ 9
HATTERAS CG      0500   81 83  220/ 10/ 15 1016.4
DIAMOND BUOY     0550   84 85  230/ 19/ 23 1016.0    5/ 5
CAPE LOOKOUT     0600   83     240/ 10/ 13 1016.4
BEAUFORT LAB     0500   83 84  230/  6/ 12 1016.6
30 SE NEW RVR IN 0508   84 85  230/ 17/ 23 1017.3
30 SE NEW RVR IN 0525      85                N/A     4/ 5
27 SE WRIGHTSVLE 0508   84 85  230/ 16/ 19 1017.9
5 SE WRIGHTSVLE  0508   82 82  240/ 10/ 14 1018.2
225 S CAPE HAT   0550   82 84  210/ 10/ 10 1019.2    2/ 8   2/ 8
41 SE CHARLESTON 0550   84 86  210/ 14/ 16 1017.5    2/ 9   2/ 9

$$




USA.gov is the U.S. government's official web portal to all federal, state and local government web resources and services.